Location: ?????
(31.8092°N, 35.2590°E)
Time: 00:30:53
(UTC+00:00)

X-37B - Pass Details

Date: 05 October 2021
Orbit: 445 x 447 km, 45.0° (Epoch: 24 October)

Event Time Altitude Azimuth Distance (km) Brightness Sun altitude
Exits shadow 00:42:57 - 73° (ENE) 1,927 4.9 -36.9°
Enters shadow 01:43:21 -62° 295° (WNW) 11,763 8.1 -24.5°
Maximum altitude 02:17:42 82° 34° (NNE) 452 0.8 -17.3°
